Theta_e
320 313 312 310 298 298 295 298 303 304 305 310 312 311 313 315 313 306 330 334 335 338 342 344 345 345 344 345 347 348 347 349 348 347 346 345 343 342 340 340 342 339 338 338 338 338 337 338 339
316 315 312 306 294 289 293 299 302 305 309 312 313 312 313 312 321 324 327 332 335 337 341 342 343 344 343 345 346 347 348 348 346 347 346 344 342 341 339 339 340 338 337 337 337 338 338 339 339
313 314 305 301 294 291 294 299 304 307 310 309 310 315 314 316 322 324 330 331 331 335 339 341 342 343 343 345 345 346 347 347 346 346 345 344 342 340 338 338 339 337 336 336 337 338 338 337 337
309 308 306 297 293 296 297 303 307 307 307 309 311 312 317 324 323 328 330 329 332 334 339 341 343 343 343 344 344 344 345 346 346 345 343 342 341 339 339 337 337 336 336 335 336 336 336 336 335
307 305 299 298 297 295 300 307 308 306 306 307 309 310 315 325 329 328 328 329 331 334 339 340 341 342 342 342 343 344 344 344 344 343 341 339 339 339 339 336 335 335 335 333 335 335 334 333 333
302 304 296 295 299 297 299 307 308 307 307 307 313 313 315 326 326 326 328 329 333 335 338 339 335 338 340 341 342 343 343 343 343 342 341 339 339 338 337 336 333 334 334 333 333 333 332 331 331
301 299 296 296 299 296 299 307 306 305 306 307 313 312 319 323 326 326 327 330 331 336 336 336 335 334 333 336 337 340 341 341 341 340 340 338 337 337 336 335 334 333 333 332 331 330 329 328 328
303 303 296 297 298 301 300 305 307 305 305 310 312 311 313 323 327 326 327 329 331 331 333 332 332 332 332 333 332 334 335 336 335 334 332 331 331 331 331 330 333 332 332 331 329 328 327 326 326
309 298 295 299 301 303 302 301 304 306 308 309 314 313 319 328 327 323 324 327 328 328 329 331 331 330 331 331 328 329 330 330 330 328 326 324 325 326 326 327 330 330 330 330 328 327 326 325 324
306 298 298 306 306 304 303 302 305 304 304 306 318 324 328 328 325 322 321 325 325 325 327 329 329 328 330 334 328 327 328 326 325 325 324 326 325 324 325 322 326 328 327 328 327 326 326 323 319
303 300 305 307 309 305 305 302 306 305 302 308 314 320 325 326 325 322 321 326 326 327 328 329 328 327 326 330 328 327 325 325 325 324 325 324 324 323 322 319 319 318 319 319 321 320 319 319 318
297 303 308 309 311 304 304 305 303 302 304 310 321 324 324 324 324 323 322 322 325 326 327 329 329 327 326 327 328 327 326 324 323 324 324 322 320 320 320 319 319 319 317 318 317 318 318 318 319
300 300 304 308 305 305 304 302 303 302 304 305 321 324 322 323 325 324 324 324 326 325 326 328 329 327 327 326 327 327 326 325 324 324 324 323 322 321 321 320 319 318 317 317 316 317 317 317 317
304 303 304 305 303 303 301 300 301 304 304 304 321 321 322 322 324 324 322 323 324 326 327 328 328 329 328 327 327 326 326 326 324 324 324 324 322 321 320 319 319 317 316 314 314 315 315 315 316
305 301 304 304 303 300 302 296 297 303 302 304 314 320 321 322 323 323 325 322 325 324 328 328 329 329 328 327 326 326 326 326 324 324 324 324 323 322 321 320 319 319 318 315 315 315 314 314 315
300 299 296 305 300 301 300 296 300 303 300 300 305 311 318 320 322 324 325 324 324 324 325 328 330 329 327 327 327 327 326 325 325 325 325 324 325 324 321 321 320 321 319 318 316 315 314 314 315
296 294 294 299 304 299 295 293 302 305 300 299 300 306 313 317 318 323 324 324 323 324 324 326 328 328 328 329 328 326 326 325 325 325 325 325 325 325 323 322 321 322 320 318 317 317 318 320 319
291 292 295 297 301 299 294 293 299 302 300 300 298 301 305 312 316 320 322 325 325 325 325 326 327 328 328 329 328 327 325 324 324 324 325 326 326 325 324 322 322 321 319 317 316 318 319 319 318
298 297 298 299 303 300 298 295 297 300 296 296 298 299 303 309 316 317 320 323 324 325 324 324 324 325 326 325 325 324 323 324 323 324 325 326 326 326 324 322 321 319 319 318 317 318 317 317 317
297 296 296 302 301 296 296 293 296 297 295 297 299 298 301 307 309 314 317 318 322 324 326 325 324 324 325 326 326 325 325 324 325 326 325 325 326 326 325 324 321 319 317 316 316 316 315 316 316
295 294 295 297 294 297 290 288 292 295 296 297 298 299 302 306 310 312 313 316 318 320 323 326 326 325 325 326 325 324 324 322 323 324 325 326 326 327 326 325 323 320 318 316 315 314 314 313 314
293 298 297 296 290 287 291 284 290 294 295 296 298 299 302 301 310 312 314 315 318 321 323 326 327 328 327 327 327 326 325 323 325 325 326 326 327 326 326 326 325 323 321 318 317 317 315 313 312
295 302 298 295 291 291 288 286 290 293 293 295 297 299 301 299 304 309 314 317 319 319 320 323 326 327 329 328 328 326 325 325 323 323 324 325 324 326 326 326 325 324 322 321 319 318 317 318 316
300 297 290 292 288 283 289 286 284 293 294 296 298 299 299 299 298 305 314 317 318 318 320 322 323 325 326 329 328 327 326 323 323 321 323 322 323 324 327 327 326 325 323 321 320 320 320 318 318
296 290 283 281 281 281 287 284 290 293 296 298 298 298 299 300 299 299 306 312 315 315 319 321 322 323 324 326 328 327 326 324 323 323 320 320 324 327 328 328 327 326 326 326 324 322 321 319 318
293 292 284 278 278 280 282 282 290 297 298 295 297 298 298 299 300 299 302 311 312 315 317 319 319 321 319 322 324 327 326 326 325 322 322 325 326 326 327 328 328 327 326 326 324 322 322 320 319
288 287 292 283 278 278 283 283 289 292 293 292 292 291 293 296 296 297 296 302 305 306 310 315 313 313 317 318 318 319 320 319 319 322 323 324 325 325 326 326 326 325 325 324 323 322 320 318 317
292 294 285 285 277 276 280 279 288 289 291 290 290 290 291 293 294 294 295 296 297 299 300 301 303 306 306 312 315 314 314 315 315 318 317 315 320 321 323 322 322 321 321 320 320 319 317 316 311
287 287 288 287 284 279 275 279 287 291 294 292 290 290 291 293 294 295 297 299 299 300 300 300 303 305 307 310 311 311 311 310 310 311 311 311 311 314 315 314 313 312 311 311 313 312 311 308 305
291 290 290 286 281 281 280 281 286 287 291 291 290 291 290 294 294 296 298 300 300 301 302 303 304 306 307 307 308 308 307 307 305 304 305 304 302 302 303 307 307 306 306 306 308 306 305 303 301
Wind_Speed
8 11 1 5 6 5 1 1 6 4 5 1 2 6 8 4 3 5 5 14 14 11 6 9 11 12 13 14 13 12 12 14 17 18 18 19 19 20 20 20 18 19 19 19 18 17 17 16 16
6 6 5 3 5 3 3 3 8 4 4 4 8 5 6 4 4 11 7 13 14 11 8 8 10 12 12 13 14 15 13 14 16 18 18 19 19 19 19 18 17 18 18 18 17 17 17 15 15
7 3 3 4 3 0 4 3 6 3 4 3 3 5 4 3 5 6 13 15 13 11 9 8 10 12 13 13 15 16 17 17 15 17 19 19 19 19 19 17 16 18 17 17 17 17 16 14 14
4 6 5 4 2 5 3 7 8 7 2 3 5 7 5 4 7 8 13 15 14 10 9 9 11 11 12 13 14 14 15 16 18 18 18 18 18 17 17 17 16 17 16 16 16 16 13 13 14
4 3 2 3 4 3 5 6 8 5 5 1 4 3 5 4 11 12 12 15 14 9 8 9 11 11 11 12 13 13 14 14 16 17 18 17 16 16 15 16 15 15 15 15 15 14 13 12 12
5 3 3 3 4 2 4 7 10 6 6 4 6 5 2 6 11 9 11 14 14 11 9 9 10 9 10 10 10 11 14 14 14 15 16 16 16 15 17 15 14 14 14 14 14 13 12 11 11
3 3 4 3 2 1 4 6 7 7 7 4 9 5 4 6 8 8 10 13 13 11 8 7 7 8 8 8 9 13 14 13 13 13 13 16 16 13 14 14 13 12 12 13 13 12 11 10 9
2 3 2 4 2 5 4 6 3 6 5 2 6 7 6 7 10 9 12 12 13 10 9 7 6 6 6 5 9 10 11 12 11 11 11 11 13 12 12 10 10 11 11 10 10 9 9 7 7
5 2 3 5 3 5 4 5 2 0 5 5 4 4 7 13 11 8 11 8 10 9 10 8 7 7 6 6 6 8 8 10 9 8 9 8 5 6 7 8 9 10 9 8 7 6 5 4 5
4 3 6 3 4 4 5 4 7 5 3 4 5 8 17 16 15 14 13 12 10 9 10 11 9 8 7 6 5 5 5 4 5 5 5 2 5 5 6 5 8 7 6 5 4 4 1 1 2
5 5 5 7 10 7 5 4 4 9 4 7 10 11 12 10 7 12 11 13 13 10 7 10 10 10 8 7 4 3 3 3 3 6 4 5 5 4 4 3 2 2 4 1 1 1 1 3 2
3 8 11 10 8 4 4 5 5 6 7 9 19 19 11 15 13 13 13 11 13 12 8 7 8 11 8 6 5 5 4 3 3 4 6 4 3 4 4 3 4 3 3 4 3 2 2 2 2
2 6 5 15 8 5 3 5 6 8 6 3 16 17 16 16 13 7 11 8 11 12 9 8 7 6 8 8 6 6 5 5 5 5 5 4 4 4 4 4 4 4 3 2 3 3 2 1 0
6 7 15 10 5 5 3 5 5 8 6 5 19 17 15 17 18 9 10 13 15 14 15 10 8 7 7 7 7 5 5 6 5 5 5 6 5 5 4 4 4 3 3 3 3 3 3 2 3
2 1 10 13 8 5 2 7 8 8 6 10 14 15 15 16 15 18 17 14 17 14 15 16 12 8 7 7 6 4 5 6 5 5 7 7 5 6 6 4 4 4 3 5 3 3 2 1 2
5 1 6 12 8 6 10 15 11 10 8 10 11 11 14 15 21 17 14 13 15 14 17 16 14 11 8 7 5 4 3 4 5 5 5 7 6 7 6 5 4 4 4 4 3 3 3 3 3
5 4 6 5 10 6 8 6 12 10 11 12 12 13 14 14 12 15 16 16 15 17 17 17 15 14 12 9 6 5 6 4 4 4 4 6 7 7 5 4 5 5 4 4 4 4 3 3 2
6 2 6 14 10 14 10 12 10 8 10 15 10 10 11 13 19 18 16 16 15 14 15 16 14 14 12 9 7 6 4 4 4 4 4 6 5 7 5 5 5 5 4 4 3 4 3 2 2
9 9 12 8 15 12 23 19 18 15 6 10 12 12 12 16 18 14 14 15 14 13 14 16 15 14 11 8 9 6 7 5 3 4 6 7 7 7 7 5 5 5 6 6 4 2 4 3 2
16 12 12 9 9 5 12 19 17 14 8 10 16 11 13 16 9 14 15 13 16 16 15 14 15 14 12 9 8 5 6 4 6 7 7 8 10 9 9 8 6 6 4 5 5 5 3 3 4
10 10 12 13 5 10 4 12 17 10 13 8 9 10 14 18 17 16 12 14 13 14 16 16 16 15 13 12 5 3 4 3 5 7 8 10 10 11 9 10 7 7 5 6 5 5 6 3 2
11 11 12 7 1 7 8 9 11 20 18 15 18 18 18 12 16 16 17 14 16 17 14 15 15 14 14 12 10 14 10 10 8 9 7 8 11 11 8 8 9 8 6 6 7 6 6 4 6
7 4 11 2 3 6 10 7 8 10 20 20 24 20 18 13 15 18 19 20 19 14 14 13 14 13 14 15 15 12 11 9 5 5 8 9 6 8 9 9 10 9 6 8 8 6 9 7 3
9 5 8 4 3 7 13 12 7 12 15 20 16 19 18 15 12 13 19 18 16 11 13 13 15 14 14 16 16 16 17 9 7 5 7 5 4 4 8 9 9 9 8 7 7 8 6 8 7
10 12 2 4 4 12 6 10 17 5 11 20 23 20 17 15 12 11 12 14 15 15 17 14 16 16 14 15 17 16 14 12 11 9 5 5 4 4 7 8 8 7 8 9 9 8 8 8 7
18 16 6 6 7 5 5 16 15 16 12 7 9 12 13 16 15 14 15 17 17 18 16 16 15 15 12 13 13 12 11 9 7 7 5 5 6 5 5 5 5 6 7 6 6 4 5 5 6
6 10 10 1 2 2 7 8 10 9 8 7 7 8 10 12 10 12 9 12 13 12 14 16 12 9 10 10 7 8 7 7 6 5 4 3 3 2 4 5 5 5 6 6 6 5 7 5 4
6 14 7 3 2 6 6 7 12 11 14 8 9 11 8 6 7 7 8 9 6 7 7 8 8 9 7 8 7 7 7 7 6 6 6 6 5 2 4 3 3 4 4 3 4 4 3 4 3
6 7 5 6 4 4 3 9 7 14 18 17 11 9 11 10 9 7 6 6 7 6 7 7 7 8 7 7 7 8 7 6 6 6 5 5 5 4 5 5 5 4 3 2 2 2 4 5 3
1 10 10 8 8 6 3 9 3 5 8 10 10 9 8 9 9 8 8 8 8 8 7 7 6 8 7 7 7 7 7 7 6 6 6 6 5 4 4 4 5 4 3 1 3 4 4 6 6
Wind_Direction
326 313 199 39 46 62 260 44 125 70 49 42 80 77 110 71 77 154 127 112 120 115 111 120 116 116 112 106 95 97 102 108 104 101 102 98 92 88 85 80 76 76 74 72 72 73 73 75 70
321 326 31 71 78 38 278 168 104 100 128 87 63 109 47 77 56 114 104 124 120 125 118 116 120 116 113 106 97 97 93 110 106 103 100 100 95 92 89 84 83 80 76 73 74 77 79 72 62
312 153 64 88 95 306 169 136 135 111 101 97 94 66 79 92 89 124 125 129 121 118 118 125 118 116 109 102 100 100 98 99 106 107 101 100 99 96 93 89 87 79 76 73 78 78 78 65 54
5 4 6 78 258 292 85 156 134 121 61 46 103 72 72 219 148 139 132 111 107 112 120 123 120 113 106 106 104 104 101 99 99 103 102 101 100 98 98 94 90 86 81 78 83 86 72 59 48
42 64 28 330 287 231 95 158 131 122 145 184 112 129 81 14 116 122 118 114 115 113 116 121 118 116 111 107 111 108 108 108 105 107 107 102 101 102 97 93 92 87 83 82 88 85 77 66 57
16 83 54 263 326 247 107 147 138 139 161 171 88 104 84 141 114 136 119 119 123 125 123 123 122 117 117 113 111 108 115 110 111 109 116 109 102 101 97 98 94 91 88 85 87 85 79 69 56
103 68 217 270 272 294 185 141 146 153 137 184 147 89 149 143 148 140 122 125 124 128 124 129 127 122 110 121 123 109 108 104 108 109 106 111 105 98 92 96 97 94 90 86 84 81 75 66 55
83 97 290 277 262 260 185 136 167 145 175 118 128 151 175 199 157 136 118 130 128 136 138 140 133 128 120 110 108 114 113 113 113 114 112 116 111 108 97 95 102 102 100 94 94 92 83 76 68
0 95 224 244 232 232 201 133 75 159 113 60 21 150 169 152 141 128 122 130 138 148 153 153 155 149 138 127 124 116 121 125 126 127 134 124 119 122 115 122 111 108 106 109 110 104 94 62 13
113 193 217 252 325 254 192 149 145 109 114 70 55 27 134 137 153 159 152 159 155 161 165 163 164 158 154 146 149 138 136 141 140 146 153 105 131 126 120 121 122 119 120 128 136 123 116 206 305
204 215 243 287 280 305 181 176 185 129 211 198 163 151 151 153 149 168 173 168 168 169 156 173 167 164 159 153 160 155 154 160 171 167 165 149 120 131 134 132 136 152 157 178 116 54 86 109 92
11 235 236 274 284 250 192 147 174 165 212 182 162 161 155 175 177 176 183 159 168 168 177 168 168 170 158 158 167 174 165 173 176 180 159 138 145 154 158 166 177 192 186 187 155 156 130 98 95
201 290 276 238 289 228 351 225 193 221 228 146 147 157 168 181 185 182 181 161 166 172 184 196 166 171 165 167 172 180 172 166 175 175 171 158 165 175 167 188 183 182 177 165 167 162 162 165 218
207 289 298 317 221 287 188 260 161 241 195 152 156 173 175 179 191 186 183 174 177 177 186 195 177 176 168 173 170 181 170 173 170 173 181 183 177 173 169 176 178 176 175 171 156 178 164 204 206
105 278 275 284 264 236 135 287 232 233 157 168 182 178 179 190 180 199 193 182 183 181 179 190 196 173 176 176 174 170 186 172 170 176 187 189 184 185 167 179 185 191 176 165 159 186 178 217 253
159 133 203 233 249 229 161 252 232 232 199 207 200 184 186 190 193 199 199 196 183 177 179 183 190 194 179 181 188 179 192 187 183 176 180 191 186 185 179 175 196 191 174 172 180 193 214 233 224
239 185 202 251 229 208 180 246 229 228 201 219 206 196 191 195 196 199 201 195 181 181 178 180 182 186 189 191 188 187 191 191 184 176 178 191 192 189 182 189 198 178 182 183 189 215 212 195 229
166 193 210 223 204 213 216 242 271 243 202 223 197 209 195 192 203 201 193 193 187 180 176 175 177 184 184 187 188 198 186 202 194 196 202 196 198 195 188 201 200 183 178 190 202 208 211 220 229
309 214 234 214 232 216 228 232 229 249 228 219 206 202 206 202 204 189 188 189 185 177 172 178 175 181 178 175 179 184 196 199 201 201 211 205 203 198 195 197 194 186 178 199 202 194 206 254 212
257 261 236 265 253 271 241 241 230 230 227 210 206 211 208 210 184 185 186 182 184 180 184 179 180 180 189 188 183 179 169 190 199 195 209 202 205 198 198 200 196 187 182 198 195 191 204 216 178
217 241 241 235 195 204 283 264 241 239 230 227 226 214 213 203 193 192 180 181 175 179 184 184 185 183 184 189 159 143 150 154 189 201 209 217 203 207 202 198 191 188 184 202 199 192 196 214 205
227 197 255 302 38 221 186 270 226 219 224 217 220 220 218 193 199 192 186 182 184 193 183 187 186 176 188 176 182 197 197 199 204 202 201 207 208 203 196 193 193 194 194 202 207 200 208 166 229
207 190 235 187 296 303 252 244 262 194 221 210 218 216 216 200 191 189 188 189 193 178 186 181 180 188 188 189 192 193 202 207 183 182 198 212 203 191 191 187 190 196 194 210 206 202 210 208 199
109 99 48 43 93 248 221 224 230 208 199 216 218 214 209 202 197 194 189 188 188 181 177 180 182 192 190 192 194 196 204 199 192 201 203 205 200 199 202 193 193 198 200 205 214 224 209 208 212
130 111 193 202 194 232 211 224 245 245 201 204 209 209 206 206 194 184 178 176 183 182 188 186 188 197 196 192 198 200 201 191 198 199 187 179 198 203 207 196 199 201 208 209 209 199 211 199 204
175 155 168 212 203 254 157 233 246 224 235 254 217 210 194 200 200 198 185 186 185 189 184 186 188 197 189 191 199 198 188 193 193 184 188 196 200 181 181 191 201 203 195 202 206 202 209 204 207
172 164 125 187 303 329 215 273 303 232 230 221 178 157 183 202 194 196 179 185 181 172 178 181 175 178 181 188 169 178 174 167 166 173 163 162 108 145 196 197 202 215 216 212 206 212 212 191 199
208 141 126 147 188 259 257 260 226 202 222 206 199 186 180 149 145 151 158 159 155 153 152 158 167 176 173 166 154 147 144 139 144 150 144 145 129 164 194 179 190 208 188 193 213 200 183 187 155
144 153 132 107 169 257 300 262 232 205 215 206 190 187 173 171 169 155 139 136 136 137 149 166 167 160 162 153 144 140 139 135 137 150 136 121 112 146 138 133 118 106 106 83 53 110 139 146 147
194 180 156 174 185 231 251 276 310 299 221 178 181 185 187 168 169 160 145 144 149 154 150 151 144 140 147 146 135 135 132 134 123 112 103 110 121 93 119 152 126 123 109 94 191 188 170 158 168